Hourly Data Report for May 05, 2021

VINELAND STATION RCS
ONTARIO
Current Station Operator: ECCC - MSC

43°11'00.000" N
79°24'00.000" W
79.20 m
6139148
71171
XVN

Download Data

Hourly Data (May 2021)
Hourly Data Report for May 5, 2021
TIME
LST
Temp Definition
°C
Dew Point Definition
°C
Rel Hum Definition
%
Precip. Amount Definition
mm

Wind Dir Definition
10's deg

Wind Spd Definition
km/h
Visibility Definition
km
Stn Press Definition
kPa
Hmdx Definition


Wind Chill Definition


Weather Definition


00:00 9.8 7.4 85 0.0 28 16   99.70     LegendNANA
01:00 9.4 7.0 85 0.0 28 15   99.76     LegendNANA
02:00 9.2 6.9 85 0.0 28 11   99.78     LegendNANA
03:00 9.4 6.6 83 0.0 28 13   99.78     LegendNANA
04:00 9.2 6.6 83 0.0 28 13   99.79     LegendNANA
05:00 9.1 6.4 83 0.0 28 13   99.81     LegendNANA
06:00 8.1 5.6 84 0.0 28 19   99.89     LegendNANA
07:00 7.9 5.3 83 0.0 28 18   99.96     LegendNANA
08:00 7.8 5.1 83 0.0 29 20   100.00     LegendNANA
09:00 8.5 5.3 81 0.0 29 18   100.03     LegendNANA
10:00 9.3 5.3 76 0.0 29 19   100.09     LegendNANA
11:00 9.7 5.4 74 0.0 29 14   100.15     LegendNANA
12:00 9.7 5.5 75 0.0 30 16   100.17     LegendNANA
13:00 11.3 5.3 66 0.0 27 17   100.18     LegendNANA
14:00 12.3 5.6 63 0.0 28 20   100.18     LegendNANA
15:00 11.0 4.5 64 0.0 29 18   100.20     LegendNANA
16:00 10.5 4.6 67 0.0 29 19   100.28     LegendNANA
17:00 10.9 4.2 63 0.0 29 20   100.35     LegendNANA
18:00 9.1 4.9 75 0.0 30 18   100.43     LegendNANA
19:00 8.7 5.2 79 0.0 29 18   100.52     LegendNANA
20:00 8.6 4.7 76 0.0 31 22   100.61     LegendNANA
21:00 7.9 4.0 76 0.0 29 16   100.72     LegendNANA
22:00 7.6 3.7 76 0.0 29 17   100.77     LegendNANA
23:00 7.1 3.4 78 0.0 29 15   100.78     LegendNANA

Notes on Data Quality.

Legend

  • E = Estimated
  • M = Missing
  • NA = Not Available*
  • [empty] = Indicates an unobserved value
Date modified: